Weather History for Port Huron, MI

Change the Weather History Date:

Monday, September 24, 2012

  Actual Average (KMTC) Record (KMTC)
Temperature  
Mean Temperature 46 °F -  
Max Temperature 62 °F 64 °F 86 °F (2010)
Min Temperature 30 °F 45 °F 32 °F (1976)
Degree Days  
Heating Degree Days 19    
Moisture  
Dew Point 34 °F    
Average Humidity 64    
Maximum Humidity 100    
Minimum Humidity 34    
Precipitation  
Precipitation 0.00 in - - ()
Sea Level Pressure  
Sea Level Pressure 30.07 in    
Wind  
Wind Speed 4 mph (SW)    
Max Wind Speed 16 mph    
Max Gust Speed 26 mph    
Visibility 10 miles    
Events      
Averages and records for this station are not official NWS values.
T = Trace of Precipitation, MM = Missing Value Source: NWS Daily Summary

Daily Weather History Graph

Daily Weather History Graph

Search for Another Location

Airport:

Trip Planner

Search our weather history database for the weather conditions in past years. The results will help you decide how hot, cold, wet, or windy it might be!

Date:

Astronomy

Sep. 24, 2012 Rise Set
Actual Time 7:20 AM EDT 7:22 PM EDT
Civil Twilight 6:51 AM EDT 7:51 PM EDT
Nautical Twilight 6:18 AM EDT 8:24 PM EDT
Astronomical Twilight 5:45 AM EDT 8:57 PM EDT
Moon 4:14 PM EDT (9/24) 1:27 AM EDT (9/24)
Length of Visible Light 12h 59m
Length of Day
12h 02m
Waxing Gibbous, 70% of the Moon is Illuminated
Sep 24
Waxing Gibbous
Sep 29
Full
Oct 8
Last Quarter
Oct 15
New
Oct 21
First Quarter

Hourly Weather History & Observations

Time (EDT) Temp. Windchill Dew Point Humidity Pressure Visibility Wind Dir Wind Speed Gust Speed Precip Events Conditions
12:16 AM 35.6 °F - 33.8 °F 93% 30.19 in 10.0 mi Calm Calm - N/A   Clear
12:36 AM 35.6 °F - 33.8 °F 93% 30.19 in 10.0 mi Calm Calm - N/A   Clear
12:56 AM 35.6 °F - 33.8 °F 93% 30.18 in 10.0 mi Calm Calm - N/A   Clear
1:16 AM 37.4 °F - 35.6 °F 93% 30.18 in 10.0 mi Calm Calm - N/A   Clear
1:36 AM 35.6 °F - 33.8 °F 93% 30.19 in 10.0 mi Calm Calm - N/A   Clear
1:56 AM 33.8 °F - 32.0 °F 93% 30.19 in 10.0 mi Calm Calm - N/A   Clear
2:16 AM 33.8 °F - 32.0 °F 93% 30.19 in 10.0 mi Calm Calm - N/A   Clear
2:35 AM 32.0 °F - 32.0 °F 100% 30.18 in 10.0 mi Calm Calm - N/A   Clear
2:56 AM 32.0 °F - 30.2 °F 93% 30.18 in 10.0 mi Calm Calm - N/A   Clear
3:16 AM 30.2 °F - 30.2 °F 100% 30.18 in 10.0 mi Calm Calm - N/A   Clear
3:36 AM 32.0 °F - 32.0 °F 100% 30.17 in 3.0 mi Calm Calm - N/A   Clear
3:56 AM 30.2 °F - 30.2 °F 100% 30.18 in 5.0 mi Calm Calm - N/A   Clear
4:16 AM 32.0 °F 28.7 °F 30.2 °F 93% 30.18 in 10.0 mi SW 3.5 mph - N/A   Clear
4:36 AM 30.2 °F - 30.2 °F 100% 30.18 in 10.0 mi Calm Calm - N/A   Clear
4:56 AM 32.0 °F 28.7 °F 32.0 °F 100% 30.18 in 10.0 mi SW 3.5 mph - N/A   Clear
5:16 AM 35.6 °F 32.8 °F 33.8 °F 93% 30.18 in 10.0 mi SW 3.5 mph - N/A   Clear
5:36 AM 32.0 °F - 30.2 °F 93% 30.18 in 10.0 mi Calm Calm - N/A   Clear
5:56 AM 35.6 °F 32.8 °F 35.6 °F 100% 30.18 in 10.0 mi SW 3.5 mph - N/A   Clear
6:16 AM 35.6 °F - 33.8 °F 93% 30.18 in 10.0 mi Calm Calm - N/A   Clear
6:36 AM 35.6 °F - 33.8 °F 93% 30.18 in 10.0 mi Calm Calm - N/A   Clear
6:56 AM 33.8 °F - 32.0 °F 93% 30.18 in 10.0 mi Calm Calm - N/A   Clear
7:16 AM 32.0 °F - 30.2 °F 93% 30.18 in 3.0 mi Calm Calm - N/A   Clear
7:36 AM 32.0 °F 28.7 °F 32.0 °F 100% 30.18 in 1.8 mi NNE 3.5 mph - N/A   Mist
7:56 AM 35.6 °F - 33.8 °F 93% 30.18 in 10.0 mi Calm Calm - N/A   Clear
8:16 AM 35.6 °F 32.8 °F 35.6 °F 100% 30.18 in 10.0 mi SW 3.5 mph - N/A   Clear
8:36 AM 39.2 °F 37.0 °F 39.2 °F 100% 30.18 in 10.0 mi SW 3.5 mph - N/A   Clear
8:56 AM 42.8 °F 40.1 °F 39.2 °F 87% 30.17 in 10.0 mi SW 4.6 mph - N/A   Clear
9:16 AM 44.6 °F 42.2 °F 39.2 °F 81% 30.17 in 10.0 mi WSW 4.6 mph - N/A   Clear
9:36 AM 48.2 °F - 41.0 °F 76% 30.17 in 10.0 mi SW 4.6 mph - N/A   Clear
9:56 AM 50.0 °F - 41.0 °F 71% 30.17 in 10.0 mi WSW 5.8 mph - N/A   Clear
10:16 AM 51.8 °F - 39.2 °F 62% 30.16 in 10.0 mi SW 10.4 mph - N/A   Clear
10:36 AM 53.6 °F - 39.2 °F 58% 30.16 in 10.0 mi SW 9.2 mph - N/A   Clear
10:56 AM 55.4 °F - 37.4 °F 51% 30.15 in 10.0 mi SSW 11.5 mph 19.6 mph N/A   Clear
11:16 AM 55.4 °F - 37.4 °F 51% 30.14 in 10.0 mi SW 11.5 mph 23.0 mph N/A   Clear
11:41 AM 57.2 °F - 37.4 °F 48% 30.13 in 10.0 mi SSW 12.7 mph 20.7 mph N/A   Clear
11:56 AM 57.2 °F - 37.4 °F 48% 30.12 in 10.0 mi SSW 13.8 mph 18.4 mph N/A   Scattered Clouds
12:16 PM 57.2 °F - 37.4 °F 48% 30.11 in 10.0 mi SW 9.2 mph 24.2 mph N/A   Scattered Clouds
12:36 PM 57.2 °F - 35.6 °F 44% 30.11 in 10.0 mi WSW 10.4 mph 24.2 mph N/A   Scattered Clouds
12:56 PM 59.0 °F - 35.6 °F 42% 30.10 in 10.0 mi SW 12.7 mph 23.0 mph N/A   Scattered Clouds
1:36 PM 59.0 °F - 35.6 °F 42% 30.07 in 10.0 mi SW 11.5 mph 23.0 mph N/A   Scattered Clouds
1:56 PM 59.0 °F - 37.4 °F 45% 30.06 in 10.0 mi SW 13.8 mph 25.3 mph N/A   Scattered Clouds
2:16 PM 59.0 °F - 35.6 °F 42% 30.05 in 10.0 mi SSW 12.7 mph 23.0 mph N/A   Scattered Clouds
2:36 PM 59.0 °F - 35.6 °F 42% 30.04 in 10.0 mi SW 15.0 mph 26.5 mph N/A   Clear
2:56 PM 60.8 °F - 33.8 °F 36% 30.03 in 10.0 mi SW 10.4 mph 25.3 mph N/A   Clear
3:16 PM 59.0 °F - 32.0 °F 36% 30.02 in 10.0 mi SW 16.1 mph 24.2 mph N/A   Clear
3:36 PM 60.8 °F - 33.8 °F 36% 30.01 in 10.0 mi SW 16.1 mph 24.2 mph N/A   Clear
3:56 PM 59.0 °F - 33.8 °F 39% 30.00 in 10.0 mi SSW 15.0 mph 21.9 mph N/A   Clear
4:16 PM 60.8 °F - 33.8 °F 36% 29.98 in 10.0 mi SW 9.2 mph 21.9 mph N/A   Clear
4:36 PM 60.8 °F - 33.8 °F 36% 29.97 in 10.0 mi SSW 16.1 mph 21.9 mph N/A   Clear
4:56 PM 60.8 °F - 33.8 °F 36% 29.96 in 10.0 mi SSW 16.1 mph 23.0 mph N/A   Clear
5:16 PM 60.8 °F - 35.6 °F 39% 29.95 in 10.0 mi SSW 11.5 mph 21.9 mph N/A   Clear
5:36 PM 62.6 °F - 33.8 °F 34% 29.94 in 10.0 mi SW 13.8 mph 24.2 mph N/A   Clear
5:56 PM 60.8 °F - 33.8 °F 36% 29.93 in 10.0 mi SW 13.8 mph 23.0 mph N/A   Clear
6:16 PM 60.8 °F - 33.8 °F 36% 29.93 in 10.0 mi SW 6.9 mph 17.3 mph N/A   Clear
6:36 PM 59.0 °F - 32.0 °F 36% 29.93 in 10.0 mi SW 5.8 mph - N/A   Clear
6:56 PM 59.0 °F - 32.0 °F 36% 29.93 in 10.0 mi SW 9.2 mph 17.3 mph N/A   Clear
7:16 PM 57.2 °F - 32.0 °F 38% 29.93 in 10.0 mi SSW 6.9 mph - N/A   Clear
7:36 PM 57.2 °F - 33.8 °F 41% 29.92 in 10.0 mi SSW 4.6 mph - N/A   Clear
7:56 PM 55.4 °F - 33.8 °F 44% 29.91 in 10.0 mi SSW 5.8 mph - N/A   Clear
8:16 PM 55.4 °F - 33.8 °F 44% 29.91 in 10.0 mi SSW 6.9 mph - N/A   Clear
8:36 PM 55.4 °F - 33.8 °F 44% 29.91 in 10.0 mi SSW 6.9 mph - N/A   Clear
8:56 PM 55.4 °F - 33.8 °F 44% 29.91 in 10.0 mi SSW 6.9 mph - N/A   Clear
9:16 PM 55.4 °F - 33.8 °F 44% 29.91 in 10.0 mi SSW 6.9 mph - N/A   Clear
9:36 PM 55.4 °F - 33.8 °F 44% 29.90 in 10.0 mi SSW 6.9 mph - N/A   Clear
9:56 PM 55.4 °F - 33.8 °F 44% 29.90 in 10.0 mi SSW 9.2 mph - N/A   Clear
10:16 PM 57.2 °F - 33.8 °F 41% 29.91 in 10.0 mi SSW 8.1 mph 19.6 mph N/A   Clear
10:36 PM 55.4 °F - 32.0 °F 41% 29.91 in 10.0 mi SW 8.1 mph 16.1 mph N/A   Clear
10:56 PM 55.4 °F - 32.0 °F 41% 29.93 in 10.0 mi SW 8.1 mph - N/A   Clear
11:16 PM 55.4 °F - 32.0 °F 41% 29.93 in 10.0 mi SW 5.8 mph - N/A   Clear
11:36 PM 55.4 °F - 32.0 °F 41% 29.93 in 10.0 mi SW 4.6 mph - N/A   Clear
11:56 PM 53.6 °F - 32.0 °F 44% 29.93 in 10.0 mi SW 4.6 mph - N/A   Clear